Location: Newark
(31.5350°N, 35.0986°E)
Time: 13:44:31
(UTC+00:00)

Explorer 7 - Pass Details

Date: 21 October 2019
Orbit: 485 x 680 km, 50.3° (Epoch: 12 November)

Event Time Altitude Azimuth Distance (km) Brightness Sun altitude
Rises 08:26:03 0° 251° (WSW) 2,573 10.2 45.6°
Reaches altitude 10° 08:28:29 10° 264° (W) 1,676 9.3 45.8°
Maximum altitude 08:31:44 27° 324° (NW) 954 7.9 46.0°
Drops below altitude 10° 08:34:59 10° 24° (NNE) 1,664 9.1 46.2°
Sets 08:37:23 0° 37° (NE) 2,551 10.0 46.3°
